Flag for Saint Kitts and Nevis Weather past 2 weeks in Basseterre, Saint Kitts and Nevis

Now
84 °F

Passing clouds.


Feels Like: 92 °F
Forecast: 81 / 84 °F
Wind: 16 mph from Northeast

Location: Golden Rock

Current Time: Jul 7, 2015 at 4:30:16 PM

Latest Report: Jul 7, 2015 at 4:00 PM


Visibility: N/A

Pressure: 30.04 "Hg

Humidity: 74%

Dew point: 75 °F

Location of BasseterreLocation

Historic Weather in Basseterre — Graph

°F

Basseterre temperature yesterday

Maximum temperature yesterday: 88 °F (at 1:00 PM)
Minimum temperature yesterday: 81 °F (at 12:00 AM)
Average temperature yesterday: 84 °F

Past Weeks' High & Low Weather Summary

 TemperatureHumidityPressure
High90 °F (Jun 29, 2:00 PM)100% (Jun 26, 8:00 PM)30.15 "Hg (Jun 26, 8:00 PM)
Low72 °F (Jun 26, 8:00 PM)55% (Jun 25, 11:00 AM)30.01 "Hg (Jul 3, 4:00 PM)
Average84 °F74%30.09 "Hg
* Reported Jun 22 3:00 PM — Jul 7 3:00 PM, Basseterre, Weather by CustomWeather, © 2015

Note: Actual official high and low records may vary slightly from our data, if they occured in-between our weather recording intervals... More about our weather records

Advertising

Basseterre weather history for previous 24 hours

 ConditionsComfort  
Time TempWeatherWind HumidityBarometerVisibility
3:00 PM
Tue, Jul 7
84 °FPartly sunny.16 mph74%30.04 "HgN/A
2:00 PM88 °FPassing clouds.17 mph70%30.04 "HgN/A
1:00 PM86 °FPartly sunny.14 mph75%30.07 "HgN/A
12:00 PM86 °FScattered clouds.18 mph75%30.09 "HgN/A
11:00 AM86 °FPartly sunny.17 mph75%30.07 "HgN/A
10:00 AM86 °FPassing clouds.17 mph70%30.07 "HgN/A
9:00 AM84 °FPassing clouds.18 mph74%30.07 "HgN/A
8:00 AM84 °FPassing clouds.16 mph70%30.04 "HgN/A
7:00 AM81 °FPassing clouds.15 mph79%30.04 "HgN/A
6:00 AM79 °FPassing clouds.14 mph84%30.04 "HgN/A
9:00 PM
Mon, Jul 6
81 °FPassing clouds.14 mph84%30.07 "HgN/A
8:00 PM81 °FPassing clouds.15 mph79%30.07 "HgN/A
7:00 PM81 °FPassing clouds.17 mph84%30.04 "HgN/A
6:00 PM82 °FPassing clouds.15 mph79%30.04 "HgN/A
5:00 PM86 °FPassing clouds.15 mph70%30.04 "HgN/A
4:00 PM86 °FPassing clouds.17 mph70%30.04 "HgN/A
Weather by CustomWeather, © 2015

See weather overviewHow to use our weather pages